Blue Image — 3EXO5 — position and weather

sailwx.info

Track history (hours):
 
Tides and Currents Weather Stations Pressure Air Temp Water Temp Dewpoint Dewpoint Depression Visibility Wind Speed Wind Dir Waves Ship Positions

Blue Image

Last reported at 2014-Nov-01 00:30 UTC. Time now 2014-Nov-01 00:36 UTC.
Position N 36°09' W 005°18'.

Length 160 m; draft 5.3 m.

Type: Cargo ship. MMSI: 351960000.

Date/timePositionNaut miles runAvg speedWind from/ knotsBaromVisibWave heightAir tempDewpointWater temp
2014-Nov-01 00:30N 36°09' W 005°18'0 0.0
2014-Oct-31 23:30N 36°09' W 005°18'0 0.0
2014-Oct-31 22:30N 36°09' W 005°18'0 0.0
2014-Oct-31 21:30N 36°09' W 005°18'0 0.0
2014-Oct-31 20:30N 36°09' W 005°18'0 0.0
2014-Oct-31 19:12N 36°09' W 005°18'0 0.0
2014-Oct-31 17:24N 36°09' W 005°18'0 0.0
2014-Oct-31 15:30N 36°09' W 005°18'0 0.0
2014-Oct-31 14:24N 36°09' W 005°18'0 0.0
2014-Oct-31 13:12N 36°09' W 005°18'0 0.0
2014-Oct-31 12:30N 36°09' W 005°18'0 0.0
2014-Oct-31 11:12N 36°09' W 005°18'0 0.0
2014-Oct-31 10:24N 36°09' W 005°18'0 0.1
2014-Oct-31 09:31N 36°09' W 005°18'4 4.4
2014-Oct-31 08:34N 36°08' W 005°13'20012.9
2014-Oct-30 17:05N 37°05' W 001°15'1214.0
2014-Oct-30 16:13N 37°13' W 001°03'1014.2
2014-Oct-30 15:30N 37°20' W 000°54'1414.3
2014-Oct-30 14:33N 37°29' W 000°41'1414.1
2014-Oct-30 13:33N 37°39' W 000°29'14013.9
2014-Oct-30 03:29N 39°40' E 001°01'1313.7
2014-Oct-30 02:33N 39°51' E 001°09'1413.5
2014-Oct-30 01:33N 40°03' E 001°17'1313.4
2014-Oct-30 00:33N 40°15' E 001°25'1413.5
2014-Oct-29 23:33N 40°27' E 001°33'1413.7
2014-Oct-29 22:33N 40°39' E 001°41'1110.4
2014-Oct-29 21:31N 40°49' E 001°48'1 0.5
2014-Oct-29 20:28N 40°49' E 001°49'1 0.5
2014-Oct-29 19:28N 40°49' E 001°49'1 0.5
2014-Oct-29 18:31N 40°49' E 001°50'1 0.5
2014-Oct-29 17:31N 40°50' E 001°50'1 0.6
2014-Oct-29 16:25N 40°50' E 001°51'8 8.7
2014-Oct-29 15:30N 40°53' E 001°41'24 1.0
2014-Oct-28 14:32N 41°06' E 001°14'0 0.0
2014-Oct-28 13:14N 41°06' E 001°14'0 0.0
2014-Oct-28 12:32N 41°06' E 001°14'0 0.0
2014-Oct-28 11:32N 41°06' E 001°14'0 0.0
2014-Oct-28 09:26N 41°06' E 001°14'0 0.0
2014-Oct-28 06:32N 41°06' E 001°14'0 0.0
2014-Oct-28 04:20N 41°06' E 001°14'0 0.0
2014-Oct-28 02:14N 41°06' E 001°14'0 0.0
2014-Oct-28 00:08N 41°06' E 001°14'0 0.0
2014-Oct-27 18:14N 41°06' E 001°14'0 0.0
2014-Oct-27 16:20N 41°06' E 001°14'0 0.0
2014-Oct-27 15:26N 41°06' E 001°14'0 0.0
2014-Oct-27 09:08N 41°06' E 001°14'0 0.0
2014-Oct-27 08:32N 41°06' E 001°14'3 0.3
2014-Oct-26 23:21N 41°04' E 001°14'2 0.1
2014-Oct-26 08:04N 41°04' E 001°16'0 0.0
2014-Oct-26 07:16N 41°04' E 001°16'0 0.0
2014-Oct-25 20:28N 41°04' E 001°16'7 0.3
2014-Oct-24 18:09N 40°57' E 001°12'912.8
2014-Oct-24 17:27N 40°48' E 001°09'1112.4
2014-Oct-24 16:32N 40°37' E 001°07'1312.9
2014-Oct-24 15:30N 40°24' E 001°05'11012.2
2014-Oct-24 06:33N 38°39' E 000°25'1212.2
2014-Oct-24 05:33N 38°28' E 000°16'1611.9
2014-Oct-24 04:12N 38°15' E 000°05'811.8
2014-Oct-24 03:33N 38°09' W 000°01'1212.2
2014-Oct-24 02:33N 37°59' W 000°09'1312.2
2014-Oct-24 01:29N 37°48' W 000°19'1112.3
2014-Oct-24 00:33N 37°38' W 000°26'1312.2
2014-Oct-23 23:30N 37°29' W 000°37'1212.3
2014-Oct-23 22:33N 37°21' W 000°48'1312.4
2014-Oct-23 21:32N 37°13' W 001°00'1212.3
2014-Oct-23 20:33N 37°04' W 001°11'20112.2
2014-Oct-23 04:05N 36°01' W 005°09'714.2
2014-Oct-23 03:34N 35°60' W 005°18'16212.2
2014-Oct-22 14:16N 36°25' W 008°36'912.3
2014-Oct-22 13:33N 36°27' W 008°47'1312.5
2014-Oct-22 12:30N 36°31' W 009°02'1212.3
2014-Oct-22 11:33N 36°33' W 009°16'1312.6
2014-Oct-22 10:33N 36°42' W 009°27'1212.4
2014-Oct-22 09:33N 36°53' W 009°34'1312.8
2014-Oct-22 08:34N 37°06' W 009°38'1312.8
2014-Oct-22 07:33N 37°18' W 009°42'1212.5
2014-Oct-22 06:34N 37°30' W 009°45'1312.6
2014-Oct-22 05:33N 37°43' W 009°48'1312.6
2014-Oct-22 04:33N 37°55' W 009°52'1212.3
2014-Oct-22 03:33N 38°07' W 009°56'1212.0
2014-Oct-22 02:33N 38°19' W 009°59'1212.2
2014-Oct-22 01:33N 38°31' W 010°03'1212.1
2014-Oct-22 00:33N 38°42' W 010°06'  
Track history (hours):
 
Tides and Currents Weather Stations Pressure Air Temp Water Temp Dewpoint Dewpoint Depression Visibility Wind Speed Wind Dir Waves Ship Positions

Blue Image

Last reported at 2014-Nov-01 00:30 UTC. Time now 2014-Nov-01 00:36 UTC.
Position N 36°09' W 005°18'.

Length 160 m; draft 5.3 m.

Type: Cargo ship. MMSI: 351960000.

Date/timePositionNaut miles runAvg speedWind from/ knotsBaromVisibWave heightAir tempDewpointWater temp
2014-Nov-01 00:30N 36°09' W 005°18'0 0.0
2014-Oct-31 23:30N 36°09' W 005°18'0 0.0
2014-Oct-31 22:30N 36°09' W 005°18'0 0.0
2014-Oct-31 21:30N 36°09' W 005°18'0 0.0
2014-Oct-31 20:30N 36°09' W 005°18'0 0.0
2014-Oct-31 19:12N 36°09' W 005°18'0 0.0
2014-Oct-31 17:24N 36°09' W 005°18'0 0.0
2014-Oct-31 15:30N 36°09' W 005°18'0 0.0
2014-Oct-31 14:24N 36°09' W 005°18'0 0.0
2014-Oct-31 13:12N 36°09' W 005°18'0 0.0
2014-Oct-31 12:30N 36°09' W 005°18'0 0.0
2014-Oct-31 11:12N 36°09' W 005°18'0 0.0
2014-Oct-31 10:24N 36°09' W 005°18'0 0.1
2014-Oct-31 09:31N 36°09' W 005°18'4 4.4
2014-Oct-31 08:34N 36°08' W 005°13'20012.9
2014-Oct-30 17:05N 37°05' W 001°15'1214.0
2014-Oct-30 16:13N 37°13' W 001°03'1014.2
2014-Oct-30 15:30N 37°20' W 000°54'1414.3
2014-Oct-30 14:33N 37°29' W 000°41'1414.1
2014-Oct-30 13:33N 37°39' W 000°29'14013.9
2014-Oct-30 03:29N 39°40' E 001°01'1313.7
2014-Oct-30 02:33N 39°51' E 001°09'1413.5
2014-Oct-30 01:33N 40°03' E 001°17'1313.4
2014-Oct-30 00:33N 40°15' E 001°25'1413.5
2014-Oct-29 23:33N 40°27' E 001°33'1413.7
2014-Oct-29 22:33N 40°39' E 001°41'1110.4
2014-Oct-29 21:31N 40°49' E 001°48'1 0.5
2014-Oct-29 20:28N 40°49' E 001°49'1 0.5
2014-Oct-29 19:28N 40°49' E 001°49'1 0.5
2014-Oct-29 18:31N 40°49' E 001°50'1 0.5
2014-Oct-29 17:31N 40°50' E 001°50'1 0.6
2014-Oct-29 16:25N 40°50' E 001°51'8 8.7
2014-Oct-29 15:30N 40°53' E 001°41'24 1.0
2014-Oct-28 14:32N 41°06' E 001°14'0 0.0
2014-Oct-28 13:14N 41°06' E 001°14'0 0.0
2014-Oct-28 12:32N 41°06' E 001°14'0 0.0
2014-Oct-28 11:32N 41°06' E 001°14'0 0.0
2014-Oct-28 09:26N 41°06' E 001°14'0 0.0
2014-Oct-28 06:32N 41°06' E 001°14'0 0.0
2014-Oct-28 04:20N 41°06' E 001°14'0 0.0
2014-Oct-28 02:14N 41°06' E 001°14'0 0.0
2014-Oct-28 00:08N 41°06' E 001°14'0 0.0
2014-Oct-27 18:14N 41°06' E 001°14'0 0.0
2014-Oct-27 16:20N 41°06' E 001°14'0 0.0
2014-Oct-27 15:26N 41°06' E 001°14'0 0.0
2014-Oct-27 09:08N 41°06' E 001°14'0 0.0
2014-Oct-27 08:32N 41°06' E 001°14'3 0.3
2014-Oct-26 23:21N 41°04' E 001°14'2 0.1
2014-Oct-26 08:04N 41°04' E 001°16'0 0.0
2014-Oct-26 07:16N 41°04' E 001°16'0 0.0
2014-Oct-25 20:28N 41°04' E 001°16'7 0.3
2014-Oct-24 18:09N 40°57' E 001°12'912.8
2014-Oct-24 17:27N 40°48' E 001°09'1112.4
2014-Oct-24 16:32N 40°37' E 001°07'1312.9
2014-Oct-24 15:30N 40°24' E 001°05'11012.2
2014-Oct-24 06:33N 38°39' E 000°25'1212.2
2014-Oct-24 05:33N 38°28' E 000°16'1611.9
2014-Oct-24 04:12N 38°15' E 000°05'811.8
2014-Oct-24 03:33N 38°09' W 000°01'1212.2
2014-Oct-24 02:33N 37°59' W 000°09'1312.2
2014-Oct-24 01:29N 37°48' W 000°19'1112.3
2014-Oct-24 00:33N 37°38' W 000°26'1312.2
2014-Oct-23 23:30N 37°29' W 000°37'1212.3
2014-Oct-23 22:33N 37°21' W 000°48'1312.4
2014-Oct-23 21:32N 37°13' W 001°00'1212.3
2014-Oct-23 20:33N 37°04' W 001°11'20112.2
2014-Oct-23 04:05N 36°01' W 005°09'714.2
2014-Oct-23 03:34N 35°60' W 005°18'16212.2
2014-Oct-22 14:16N 36°25' W 008°36'912.3
2014-Oct-22 13:33N 36°27' W 008°47'1312.5
2014-Oct-22 12:30N 36°31' W 009°02'1212.3
2014-Oct-22 11:33N 36°33' W 009°16'1312.6
2014-Oct-22 10:33N 36°42' W 009°27'1212.4
2014-Oct-22 09:33N 36°53' W 009°34'1312.8
2014-Oct-22 08:34N 37°06' W 009°38'1312.8
2014-Oct-22 07:33N 37°18' W 009°42'1212.5
2014-Oct-22 06:34N 37°30' W 009°45'1312.6
2014-Oct-22 05:33N 37°43' W 009°48'1312.6
2014-Oct-22 04:33N 37°55' W 009°52'1212.3
2014-Oct-22 03:33N 38°07' W 009°56'1212.0
2014-Oct-22 02:33N 38°19' W 009°59'1212.2
2014-Oct-22 01:33N 38°31' W 010°03'1212.1
2014-Oct-22 00:33N 38°42' W 010°06'  

Dump ship's entire track history